Home > Time Zones > World Clock > Weather > Serbia > Niš > Past weeks

Flag for Serbia Weather past 2 weeks in Niš, Serbia

Now
45 °F

Scattered clouds.


Feels Like: 39 °F
Forecast: 36 / 44 °F
Wind: 12 mph from Northwest

Location: Nis Airport

Current Time: Dec 21, 2014 at 3:29:03 PM

Latest Report: Dec 21, 2014 at 3:00 PM


Visibility: N/A

Pressure: 30.33 "Hg

Humidity: 53%

Dew point: 28 °F

Location of NišLocation

Historic Weather in Niš — Graph

°F

Niš temperature yesterday

Maximum temperature yesterday: 46 °F (at 12:00 PM)
Minimum temperature yesterday: 32 °F (at 5:30 AM)
Average temperature yesterday: 39 °F

Past Weeks' High & Low Weather Summary

 TemperatureHumidityPressure
High55 °F (Dec 17, 12:30 PM)100% (Dec 6, 2:00 PM)30.33 "Hg (Dec 6, 2:00 PM)
Low25 °F (Dec 13, 3:30 AM)47% (Dec 16, 1:00 PM)29.86 "Hg (Dec 9, 4:30 AM)
Average39 °F90%30.11 "Hg
* Reported Dec 6 2:00 PM — Dec 21 2:30 PM, Niš, Weather by CustomWeather, © 2014

Note: Actual official high and low records may vary slightly from our data, if they occured in-between our weather recording intervals... More about our weather records

Advertising

Niš weather history for previous 24 hours

 ConditionsComfort  
Time TempWeatherWind HumidityBarometerVisibility
2:30 PM
Dec 21
45 °FScattered clouds.12 mph53%30.33 "HgN/A
2:00 PM46 °FScattered clouds.9 mph66%30.33 "HgN/A
1:30 PM46 °FScattered clouds.5 mph66%30.33 "HgN/A
1:00 PM43 °FScattered clouds.2 mph81%30.30 "HgN/A
12:30 PM41 °FPartly sunny.3 mph81%30.30 "HgN/A
12:00 PM43 °FLight rain. Partly sunny.6 mph81%30.30 "HgN/A
11:30 AM43 °FLight rain. Partly sunny.1 mph81%30.30 "HgN/A
11:00 AM41 °FPartly sunny.3 mph87%30.30 "HgN/A
10:30 AM41 °FPartly sunny.5 mph87%30.30 "HgN/A
10:00 AM41 °FBroken clouds.6 mph81%30.30 "HgN/A
9:30 AM41 °FBroken clouds.7 mph81%30.30 "HgN/A
9:00 AM39 °FBroken clouds.7 mph87%30.30 "HgN/A
8:30 AM39 °FBroken clouds.8 mph87%30.27 "HgN/A
8:00 AM39 °FBroken clouds.8 mph87%30.24 "HgN/A
7:30 AM37 °FBroken clouds.8 mph93%30.21 "HgN/A
7:00 AM39 °FPartly cloudy.3 mph87%30.21 "HgN/A
6:30 AM39 °FPassing clouds.23 mph93%30.18 "HgN/A
6:00 AM39 °FLight rain. Passing clouds.26 mph100%30.15 "HgN/A
5:30 AM37 °FRain. Passing clouds.9 mph100%30.12 "Hg4 mi
5:00 AM36 °FLight rain. Fog.5 mph100%30.07 "Hg3 mi
4:30 AM36 °FLight rain. Fog.2 mph100%30.07 "Hg1 mi
4:00 AM36 °FFog.2 mph100%30.07 "Hg2 mi
3:30 AM34 °FFog.3 mph100%30.07 "Hg2 mi
3:00 AM34 °FFog.2 mph100%30.09 "Hg2 mi
2:30 AM32 °FIce fog.3 mph100%30.09 "Hg1 mi
2:00 AM30 °FIce fog.2 mph100%30.09 "Hg1 mi
1:30 AM32 °FIce fog.2 mph100%30.09 "Hg1 mi
1:00 AM34 °FFog.5 mph100%30.12 "Hg1 mi
12:30 AM32 °FIce fog.2 mph100%30.12 "Hg1 mi
12:00 AM34 °FFog.2 mph100%30.15 "Hg1 mi
11:30 PM
Dec 20
34 °FFog.2 mph100%30.15 "Hg1 mi
11:00 PM36 °FFog.2 mph100%30.15 "Hg1 mi
10:30 PM36 °FFog.3 mph100%30.15 "Hg1 mi
10:00 PM36 °FFog.5 mph100%30.15 "Hg1 mi
9:30 PM37 °FFog.3 mph100%30.18 "Hg1 mi
9:00 PM37 °FFog.6 mph100%30.18 "Hg1 mi
8:30 PM36 °FFog.1 mph100%30.18 "Hg1 mi
8:00 PM37 °FFog.2 mph100%30.21 "Hg1 mi
7:30 PM36 °FFog.3 mph93%30.21 "Hg1 mi
7:00 PM39 °FFog.3 mph93%30.21 "Hg1 mi
6:30 PM39 °FFog.No wind100%30.21 "Hg1 mi
6:00 PM41 °FSleet. Fog.1 mph87%30.21 "HgN/A
5:30 PM43 °FPassing clouds.3 mph87%30.21 "HgN/A
5:00 PM43 °FClear.2 mph87%30.21 "Hg5 mi
4:30 PM45 °FPassing clouds.2 mph81%30.21 "Hg4 mi
4:00 PM46 °FPassing clouds.1 mph76%30.21 "Hg4 mi
3:30 PM45 °FScattered clouds.2 mph81%30.21 "HgN/A
3:00 PM46 °FPassing clouds.2 mph76%30.21 "HgN/A
Weather by CustomWeather, © 2014

See weather overviewHow to use our weather pages